P/2001 Q5 ( LINEAR-NEAT )

Japanese version
Home page
Total 5,708 html files since Dec. 4, 1995
Updated on November 25, 2001

---------------------------------------------------------------------

* Profile

Discovery Date August 17 and 28, 2001
Magnitude 17.3 mag
Discoverer Lincoln Laboratory Near-Earth Asteroid Research project, Near-Earth-Asteroid Tracking Team (Jet Propulsion Laboratory)

* Orbital Elements

T 2001 June 11.6127 TT                                  MPC
q   2.043032             (2000.0)            P               Q
n   0.1503399      Peri.    6.3892      +0.9537301      +0.2907920
a   3.502837       Node   336.2692      -0.2835768      +0.7855345
e   0.416749       Incl.   10.9455      -0.0999156      +0.5462376
P   6.56
>From 202 observations 2001 Aug. 17-Nov. 12.

* Finding Charts

* Magnitudes Graph

        m1 = 12.5 + 5 log d + 10.0 log r

---------------------------------------------------------------------

The orbital elements are calculated by Dr. Brian G. Marsden and printed on M.P.E.C. 2001-W10.
The charts are made with StellaNavigator Ver.2.0 for Windows (AstroArts / ASCII).
The magnitudes graphs are made with Comet for Windows.

---------------------------------------------------------------------

Copyright(C) 1995-2007 Seiichi Yoshida (comet@aerith.net). All rights reserved.